Weather History for New Philadelphia, OH

Change the Weather History Date:

Saturday, September 21, 2013

  Actual Average Record
Temperature  
Mean Temperature 63 °F 62 °F  
Max Temperature 72 °F 74 °F 90 °F (1978)
Min Temperature 53 °F 50 °F 33 °F (1962)
Degree Days  
Heating Degree Days 2 4  
Month to date heating degree days 50 43  
Since 1 July heating degree days 64 53  
Cooling Degree Days 0 1  
Month to date cooling degree days 79 57  
Year to date cooling degree days 724 679  
Growing Degree Days 13 (Base 50)    
Moisture  
Dew Point 60 °F    
Average Humidity 77    
Maximum Humidity 100    
Minimum Humidity 53    
Precipitation  
Precipitation 0.73 in 0.10 in 1.05 in (1950)
Month to date precipitation 1.29 2.48  
Year to date precipitation 25.03 29.43  
Sea Level Pressure  
Sea Level Pressure 29.76 in    
Wind  
Wind Speed 3 mph (WSW)    
Max Wind Speed 13 mph    
Max Gust Speed 22 mph    
Visibility 5 miles    
Events Rain    
T = Trace of Precipitation, MM = Missing Value Source: NWS Daily Summary

Daily Weather History Graph

Daily Weather History Graph

Search for Another Location

Airport:

Trip Planner

Search our weather history database for the weather conditions in past years. The results will help you decide how hot, cold, wet, or windy it might be!

Date:

Astronomy

Sep. 21, 2013 Rise Set
Actual Time 7:12 AM EDT 7:24 PM EDT
Civil Twilight 6:45 AM EDT 7:51 PM EDT
Nautical Twilight 6:13 AM EDT 8:23 PM EDT
Astronomical Twilight 5:40 AM EDT 8:55 PM EDT
Moon 8:33 PM EDT (9/21) 9:30 AM EDT (9/21)
Length of Visible Light 13h 06m
Length of Day
12h 11m
Waning Gibbous, 94% of the Moon is Illuminated
Sep 21
Waning Gibbous
Sep 26
Last Quarter
Oct 4
New
Oct 11
First Quarter
Oct 18
Full

Hourly Weather History & Observations

Time (EDT) Temp. Dew Point Humidity Pressure Visibility Wind Dir Wind Speed Gust Speed Precip Events Conditions
12:14 AM 73.4 °F 66.2 °F 78% 29.82 in 10.0 mi Calm Calm - N/A   Mostly Cloudy
12:37 AM 73.4 °F 66.2 °F 78% 29.82 in 10.0 mi Calm Calm - N/A   Mostly Cloudy
12:53 AM 73.0 °F 66.9 °F 81% 29.79 in 9.0 mi Calm Calm - N/A   Mostly Cloudy
1:53 AM 70.0 °F 66.9 °F 90% 29.78 in 7.0 mi Calm Calm - N/A   Clear
2:39 AM 69.8 °F 66.2 °F 88% 29.79 in 6.0 mi Calm Calm - N/A   Mostly Cloudy
2:53 AM 69.1 °F 66.0 °F 90% 29.76 in 6.0 mi Calm Calm - N/A   Overcast
3:40 AM 69.8 °F 66.2 °F 88% 29.76 in 5.0 mi SE 3.5 mph - N/A   Overcast
3:53 AM 69.1 °F 66.9 °F 93% 29.74 in 5.0 mi SE 3.5 mph - N/A   Overcast
4:03 AM 69.8 °F 66.2 °F 88% 29.75 in 5.0 mi SE 4.6 mph - N/A   Overcast
4:28 AM 69.8 °F 66.2 °F 88% 29.73 in 6.0 mi SSE 4.6 mph - N/A   Mostly Cloudy
4:53 AM 70.0 °F 66.9 °F 90% 29.71 in 7.0 mi SSE 5.8 mph - N/A   Overcast
5:45 AM 69.8 °F 66.2 °F 88% 29.72 in 6.0 mi SSW 8.1 mph - 0.01 in Rain Light Rain
5:53 AM 69.1 °F 66.0 °F 90% 29.70 in 6.0 mi SSW 11.5 mph 18.4 mph 0.01 in Rain Light Rain
6:53 AM 68.0 °F 64.9 °F 90% 29.70 in 4.0 mi West 9.2 mph 19.6 mph 0.06 in Rain Rain
6:59 AM 66.2 °F 62.6 °F 88% 29.73 in 1.8 mi West 8.1 mph 18.4 mph 0.06 in Rain Heavy Rain
7:06 AM 66.2 °F 62.6 °F 88% 29.73 in 2.5 mi WSW 8.1 mph 18.4 mph 0.08 in Rain Rain
7:14 AM 66.2 °F 62.6 °F 88% 29.73 in 6.0 mi West 4.6 mph - 0.08 in Rain Light Rain
7:53 AM 64.9 °F 63.0 °F 93% 29.73 in 4.0 mi Calm Calm - 0.12 in Rain Light Rain
7:58 AM 64.4 °F 62.6 °F 94% 29.74 in 6.0 mi Calm Calm - 0.00 in Rain Light Rain
8:11 AM 64.4 °F 62.6 °F 94% 29.73 in 5.0 mi Calm Calm - 0.02 in Rain Light Rain
8:53 AM 64.9 °F 63.0 °F 93% 29.71 in 10.0 mi Calm Calm - 0.06 in Rain Light Rain
9:53 AM 64.9 °F 63.0 °F 93% 29.73 in 4.0 mi Calm Calm - 0.05 in Rain Rain
10:06 AM 66.2 °F 62.6 °F 88% 29.74 in 4.0 mi Calm Calm - 0.02 in Rain Rain
10:17 AM 64.4 °F 62.6 °F 94% 29.73 in 7.0 mi South 4.6 mph - 0.03 in Rain Light Rain
10:53 AM 64.9 °F 63.0 °F 93% 29.71 in 10.0 mi SSE 5.8 mph - 0.05 in Rain Light Rain
11:53 AM 64.9 °F 63.0 °F 93% 29.70 in 6.0 mi SSE 3.5 mph - 0.06 in Rain Light Rain
12:19 PM 64.4 °F 62.6 °F 94% 29.72 in 4.0 mi SE 3.5 mph - 0.03 in Rain Rain
12:53 PM 64.0 °F 62.1 °F 93% 29.70 in 5.0 mi SE 4.6 mph - 0.08 in Rain Rain
1:05 PM 64.4 °F 60.8 °F 88% 29.72 in 3.0 mi WSW 4.6 mph - 0.02 in Rain Rain
1:11 PM 62.6 °F 60.8 °F 94% 29.73 in 1.8 mi West 3.5 mph - 0.05 in Rain Heavy Rain
1:16 PM 62.6 °F 60.8 °F 94% 29.74 in 1.0 mi West 4.6 mph - 0.11 in Rain Heavy Rain
1:23 PM 62.6 °F 60.8 °F 94% 29.73 in 0.8 mi Variable 4.6 mph - 0.19 in Rain Heavy Rain
1:27 PM 62.6 °F 60.8 °F 94% 29.74 in 1.0 mi NW 10.4 mph 18.4 mph 0.20 in Rain Rain
1:30 PM 62.6 °F 59.0 °F 88% 29.74 in 2.5 mi NW 11.5 mph 18.4 mph 0.20 in Rain Light Rain
1:37 PM 60.8 °F 57.2 °F 88% 29.74 in 5.0 mi NW 10.4 mph - 0.20 in Rain Light Rain
1:53 PM 60.1 °F 57.0 °F 90% 29.73 in 5.0 mi NNW 8.1 mph - 0.20 in Rain Light Rain
1:59 PM 60.8 °F 57.2 °F 88% 29.74 in 4.0 mi NW 3.5 mph - 0.01 in Rain Light Rain
2:03 PM 60.8 °F 57.2 °F 88% 29.74 in 2.0 mi Calm Calm - 0.03 in Rain Rain
2:08 PM 60.8 °F 57.2 °F 88% 29.74 in 1.5 mi Calm Calm - 0.04 in Rain Rain
2:13 PM 60.8 °F 57.2 °F 88% 29.74 in 3.0 mi Calm Calm - 0.04 in Rain Light Rain
2:33 PM 60.8 °F 57.2 °F 88% 29.74 in 10.0 mi Calm Calm - 0.04 in   Overcast
2:53 PM 62.1 °F 57.9 °F 86% 29.74 in 10.0 mi West 5.8 mph - 0.04 in   Overcast
3:27 PM 64.4 °F 59.0 °F 83% 29.76 in 10.0 mi NW 4.6 mph - N/A   Overcast
3:53 PM 66.0 °F 57.9 °F 75% 29.74 in 10.0 mi Variable 4.6 mph - N/A   Overcast
4:53 PM 69.1 °F 55.0 °F 61% 29.73 in 10.0 mi Variable 5.8 mph - N/A   Mostly Cloudy
5:53 PM 69.1 °F 52.0 °F 54% 29.74 in 10.0 mi WNW 5.8 mph - N/A   Clear
6:53 PM 66.0 °F 52.0 °F 60% 29.75 in 10.0 mi WNW 4.6 mph - N/A   Clear
7:53 PM 60.1 °F 55.0 °F 83% 29.77 in 10.0 mi Calm Calm - N/A   Mostly Cloudy
8:53 PM 60.1 °F 55.0 °F 83% 29.80 in 10.0 mi Calm Calm - N/A   Mostly Cloudy
9:53 PM 57.9 °F 54.0 °F 87% 29.81 in 10.0 mi Calm Calm - N/A   Scattered Clouds
10:53 PM 54.0 °F 53.1 °F 97% 29.83 in 5.0 mi Calm Calm - N/A   Partly Cloudy
11:08 PM 53.6 °F 51.8 °F 94% 29.83 in 1.5 mi Calm Calm - N/A   Scattered Clouds
11:12 PM 53.6 °F 51.8 °F 94% 29.83 in 0.8 mi Calm Calm - N/A   Partly Cloudy
11:19 PM 53.6 °F 51.8 °F 94% 29.83 in 1.2 mi Calm Calm - N/A   Partly Cloudy
11:24 PM 53.6 °F 51.8 °F 94% 29.83 in 3.0 mi Calm Calm - N/A   Partly Cloudy
11:36 PM 53.6 °F 51.8 °F 94% 29.83 in 2.0 mi Calm Calm - N/A   Clear
11:43 PM 53.6 °F 51.8 °F 94% 29.84 in 1.2 mi Calm Calm - N/A   Clear
11:45 PM 53.6 °F 51.8 °F 94% 29.84 in 0.8 mi Calm Calm - N/A   Clear
11:53 PM 53.1 °F 52.0 °F 96% 29.84 in 1.0 mi Calm Calm - N/A   Clear
11:56 PM 53.6 °F 51.8 °F 94% 29.84 in 2.5 mi Calm Calm - N/A   Clear